Погода в Микуличине

Украина / Ивано-Франковская область     48°24′16″N   24°36′33″E
темп.,
°C
ветер,
м/с
пор.,
м/с
влажн.,
%
обл.,
%
осадки,
мм/ч
давл.,
гПа
погр.,
м
7 мая, пт
пт700:00+2ююз348465 0.0 101465
03:00+2ююз3488100 0.0 101471
06:00+2ююз3383100 0.0 101268
09:00+6ю2882100 0.3 1009511
12:00+8юз41185100 1.9 10081025
15:00+9зюз3880100 3.8 1008977
18:00+8юз3985100 2.1 1008736
21:00+5ююз3595100 2.3 1009146
8 мая, сб
сб800:00+6з1292100 0.1 101149
03:00+2ссз2597100 1.8 1014471
06:00−1юз22967 1.7 101841
09:00+3зсз37645 1.7 10191313
12:00+7сз574236 0.0 10192179
15:00+9ссз473594 0.0 10182599
18:00+8ссз3547100 0.1 10201766
21:00+2вюв008914 0.3 102310
9 мая, вс
вс900:000юз22905 0.0 102636
03:000юз338887 0.0 102649
06:000юз33865 0.0 102754
09:00+8ю125662 0.0 1025585
12:00+13зюз133774 0.0 10241986
15:00+15в03335 0.0 10222068
18:00+14вюв12415 0.0 10221146
21:00+6ю228017 0.0 102518
10 мая, пн
пн1000:00+5юз33775 0.0 102542
03:00+4юз33755 0.0 102544
06:00+4юз33605 0.0 102441
09:00+13ю12370 0.0 1022278
12:00+19вюв23295 0.0 10211170
15:00+21в24300 0.0 10191488
18:00+19вюв23440 0.0 1019736
21:00+10юз11830 0.0 102113
11 мая, вт
вт1100:00+9юз32700 0.0 102230
03:00+8юз22640 0.0 102123
06:00+8юз22640 0.0 102124
09:00+16вюв12500 0.0 1019288
12:00+20всв33450 0.0 10181026
15:00+20всв33460 0.0 1017900
18:00+18всв33490 0.0 1017621
21:00+10ююв11780 0.0 101714